Regional Weather Roundup
Issued by NWS

Home | Current Version | Previous Version | Graphics & Text | Print | Product List | Glossary On
Versions: 1 2 3 4 5 6 7 8 9 10 11 12 13 14 15 16 17 18 19 20 21 22 23 24 25 26 27 28 29 30 31 32 33 34 35 36 37 38 39 40 41 42 43 44 45 46 47 48 49 50
000
ASUS43 KLMK 240702
RWRKY
KENTUCKY REGIONAL WEATHER ROUNDUP
NATIONAL WEATHER SERVICE LOUISVILLE KY
200 AM EST FRI NOV 24 2017

NOTE "FAIR" INDICATES FEW OR NO CLOUDS BELOW 12,000 FEET
WITH NO SIGNIFICANT WEATHER AND/OR OBSTRUCTIONS TO VISIBILITY.

KYZ001>023-026-027-061>063-070>075-240800-
WESTERN AND SOUTH CENTRAL KENTUCKY

CITY           SKY/WX    TMP DP  RH WIND       PRES   REMARKS
PADUCAH        CLOUDY    32  24  72 CALM      29.99F
HENDERSON      CLOUDY    33  24  69 CALM      30.00F
OWENSBORO      CLOUDY    35  25  66 SE5       30.01F WCI  31
HOPKINSVILLE   CLOUDY    35  24  66 CALM      30.01F
BOWLING GREEN  CLOUDY    29  26  89 CALM      30.04F
GLASGOW        NOT AVBL
$$

KYZ024-025-028>034-038-045-046-053-240800-
NORTH CENTRAL KENTUCKY

CITY           SKY/WX    TMP DP  RH WIND       PRES   REMARKS
LOUISVILLE/SDF CLOUDY    34  27  75 SE5       30.02S WCI  30
LOUISVILLE/LOU CLOUDY    33  28  81 CALM      30.02F
FORT KNOX      CLOUDY    33  23  67 S3        30.00F
$$

KYZ035>037-039>044-047>052-055>060-089>105-240800-
NORTHEAST KENTUCKY

CITY           SKY/WX    TMP DP  RH WIND       PRES   REMARKS
LEXINGTON      CLOUDY    30  23  75 CALM      30.02S
COVINGTON      CLOUDY    29  27  92 S5        30.00S WCI  24
FRANKFORT      CLOUDY    27  22  81 CALM      30.02R
$$

KYZ054-064>069-076>088-106>120-240800-
SOUTHEAST KENTUCKY

CITY           SKY/WX    TMP DP  RH WIND       PRES   REMARKS
JACKSON        CLOUDY    37  20  50 CALM      30.03S
LONDON         CLOUDY    28  24  85 SE5       30.02F WCI  23
SOMERSET       CLOUDY    28  27  93 CALM      30.05S
MIDDLESBORO    CLEAR     28  27  95 CALM      30.07S
MONTICELLO     SUNNY     25  23  92 W9        30.05F WCI  15
$$





USA.gov is the U.S. government's official web portal to all federal, state and local government web resources and services.